| time (UTC) | temp F | wind direction | speed MPH | gust MPH | rain 1hr in | rain 24hr in | rain mn in | humidity % | barometer mb |
| 20260906121542 | 44 | 143 | 0.0 | 0.0 | 0.00 | 0.00 | 0.00 | 16 | 1010.3 |
| 20260906120038 | 44 | 143 | 0.0 | 0.0 | 0.00 | 0.00 | 0.00 | 18 | 1010.4 |
| 20260906114546 | 45 | 143 | 0.0 | 0.0 | 0.00 | 0.00 | 0.00 | 18 | 1010.2 |
| 20260906113035 | 45 | 143 | 0.0 | 0.0 | 0.00 | 0.00 | 0.00 | 18 | 1010.2 |
| 20260906111541 | 45 | 143 | 0.0 | 0.0 | 0.00 | 0.00 | 0.00 | 18 | 1010.2 |
| 20260906110029 | 45 | 143 | 0.0 | 0.0 | 0.00 | 0.00 | 0.00 | 23 | 1010.1 |
| 20260906104531 | 46 | 143 | 0.0 | 0.0 | 0.00 | 0.00 | 0.00 | 25 | 1009.9 |
| 20260906103023 | 46 | 143 | 0.0 | 0.0 | 0.00 | 0.00 | 0.00 | 33 | 1009.7 |
| 20260906101523 | 47 | 143 | 0.0 | 0.0 | 0.00 | 0.00 | 0.00 | 49 | 1009.4 |
| 20260906100028 | 47 | 143 | 0.0 | 0.0 | 0.00 | 0.00 | 0.00 | 52 | 1009.2 |
| 20260906094514 | 47 | 143 | 0.0 | 0.0 | 0.00 | 0.00 | 0.00 | 54 | 1009.0 |
| 20260906093015 | 48 | 143 | 0.0 | 0.0 | 0.00 | 0.00 | 0.00 | 56 | 1009.0 |
| 20260906091511 | 48 | 143 | 0.0 | 0.0 | 0.00 | 0.00 | 0.00 | 57 | 1008.8 |
| 20260906090007 | 49 | 143 | 0.0 | 0.0 | 0.00 | 0.00 | 0.00 | 57 | 1008.8 |
| 20260906084509 | 49 | 143 | 0.0 | 0.0 | 0.00 | 0.00 | 0.00 | 57 | 1008.8 |
| 20260906083003 | 49 | 143 | 0.0 | 0.0 | 0.00 | 0.00 | 0.00 | 57 | 1008.6 |
| 20260906081501 | 49 | 143 | 0.0 | 0.0 | 0.00 | 0.00 | 0.00 | 57 | 1008.6 |
| 20260906080059 | 50 | 143 | 0.0 | 0.0 | 0.00 | 0.00 | 0.00 | 57 | 1008.7 |
| 20260906074556 | 50 | 143 | 0.0 | 0.0 | 0.00 | 0.00 | 0.00 | 57 | 1008.6 |
| 20260906073054 | 51 | 143 | 0.0 | 0.0 | 0.00 | 0.00 | 0.00 | 56 | 1008.5 |
| 20260906071554 | 51 | 143 | 0.0 | 0.0 | 0.00 | 0.00 | 0.00 | 56 | 1008.6 |
| 20260906070053 | 51 | 143 | 0.0 | 0.0 | 0.00 | 0.00 | 0.00 | 56 | 1008.4 |
| 20260906064549 | 52 | 143 | 0.0 | 0.0 | 0.00 | 0.00 | 0.00 | 55 | 1008.2 |
| 20260906063044 | 53 | 143 | 0.0 | 0.0 | 0.00 | 0.00 | 0.00 | 53 | 1008.2 |
| 20260906061546 | 54 | 143 | 0.0 | 0.0 | 0.00 | 0.00 | 0.00 | 50 | 1008.1 |
| 20260906060044 | 54 | 143 | 0.0 | 0.0 | 0.00 | 0.00 | 0.00 | 50 | 1008.0 |
| 20260906054542 | 55 | 143 | 0.0 | 0.0 | 0.00 | 0.00 | 0.00 | 51 | 1008.0 |
| 20260906053030 | 55 | 143 | 0.0 | 0.0 | 0.00 | 0.00 | 0.00 | 52 | 1007.8 |
| 20260906051525 | 56 | 143 | 0.0 | 0.0 | 0.00 | 0.00 | 0.00 | 49 | 1007.8 |
| 20260906050021 | 57 | 143 | 0.0 | 0.0 | 0.00 | 0.00 | 0.00 | 45 | 1007.7 |
| 20260906044519 | 56 | 143 | 0.0 | 0.0 | 0.00 | 0.00 | 0.00 | 47 | 1007.7 |
| 20260906043026 | 57 | 143 | 0.0 | 0.0 | 0.00 | 0.00 | 0.00 | 47 | 1007.6 |
| 20260906041508 | 58 | 143 | 0.0 | 0.0 | 0.00 | 0.00 | 0.00 | 44 | 1007.4 |
| 20260906040004 | 60 | 143 | 0.0 | 0.0 | 0.00 | 0.00 | 0.00 | 41 | 1007.1 |
| 20260906034606 | 61 | 143 | 0.0 | 0.0 | 0.00 | 0.00 | 0.00 | 39 | 1006.9 |
| 20260906033055 | 61 | 143 | 0.0 | 0.0 | 0.00 | 0.00 | 0.00 | 39 | 1006.7 |
| 20260906031551 | 62 | 143 | 0.0 | 0.0 | 0.00 | 0.00 | 0.00 | 39 | 1006.5 |
| 20260906030046 | 64 | 143 | 0.0 | 0.0 | 0.00 | 0.00 | 0.00 | 35 | 1006.3 |
| 20260906024543 | 66 | 143 | 0.0 | 0.0 | 0.00 | 0.00 | 0.00 | 32 | 1006.0 |
| 20260906023037 | 68 | 143 | 0.0 | 0.0 | 0.00 | 0.00 | 0.00 | 30 | 1005.6 |
| 20260906021540 | 69 | 172 | 0.0 | 0.0 | 0.00 | 0.00 | 0.00 | 29 | 1005.3 |
| 20260906020029 | 71 | 208 | 0.0 | 0.0 | 0.00 | 0.00 | 0.00 | 26 | 1005.1 |
| 20260906014526 | 73 | 221 | 0.0 | 0.0 | 0.00 | 0.00 | 0.00 | 25 | 1005.1 |
| 20260906013022 | 76 | 234 | 0.0 | 0.0 | 0.00 | 0.00 | 0.00 | 19 | 1005.0 |
| 20260906011517 | 78 | 233 | 0.0 | 1.0 | 0.00 | 0.00 | 0.00 | 18 | 1004.9 |
| 20260906010013 | 78 | 238 | 0.0 | 10.0 | 0.00 | 0.00 | 0.00 | 19 | 1005.0 |
| 20260906004509 | 79 | 233 | 0.0 | 0.0 | 0.00 | 0.00 | 0.00 | 17 | 1005.0 |
| 20260906003004 | 80 | 244 | 0.0 | 0.0 | 0.00 | 0.00 | 0.00 | 19 | 1004.9 |
| 20260906001605 | 80 | 226 | 0.0 | 0.0 | 0.00 | 0.00 | 0.00 | 20 | 1004.9 |
| 20260906000056 | 80 | 213 | 0.0 | 0.0 | 0.00 | 0.00 | 0.00 | 18 | 1004.9 |
| 20260905234552 | 80 | 200 | 0.0 | 0.0 | 0.00 | 0.00 | 0.00 | 21 | 1004.9 |
| 20260905233047 | 81 | 233 | 0.0 | 12.0 | 0.00 | 0.00 | 0.00 | 21 | 1005.0 |
| 20260905231542 | 81 | 200 | 0.0 | 0.0 | 0.00 | 0.00 | 0.00 | 21 | 1005.0 |
| 20260905230039 | 81 | 223 | 0.0 | 0.0 | 0.00 | 0.00 | 0.00 | 19 | 1005.0 |
| 20260905224534 | 81 | 238 | 0.0 | 0.0 | 0.00 | 0.00 | 0.00 | 20 | 1005.2 |
| 20260905223042 | 80 | 213 | 0.0 | 0.0 | 0.00 | 0.00 | 0.00 | 20 | 1005.3 |
| 20260905221524 | 80 | 169 | 0.0 | 4.0 | 0.00 | 0.00 | 0.00 | 24 | 1005.6 |
| 20260905220020 | 80 | 161 | 0.0 | 0.0 | 0.00 | 0.00 | 0.00 | 20 | 1005.9 |
| 20260905214515 | 80 | 187 | 0.0 | 8.0 | 0.00 | 0.00 | 0.00 | 22 | 1006.0 |
| 20260905213010 | 80 | 360 | 2.0 | 18.0 | 0.00 | 0.00 | 0.00 | 23 | 1005.9 |
| 20260905211506 | 80 | 162 | 0.0 | 12.0 | 0.00 | 0.00 | 0.00 | 23 | 1006.2 |
| 20260905210001 | 79 | 360 | 0.0 | 0.0 | 0.00 | 0.00 | 0.00 | 25 | 1006.4 |
| 20260905204600 | 79 | 164 | 0.0 | 12.0 | 0.00 | 0.00 | 0.00 | 24 | 1006.3 |
| 20260905203052 | 79 | 169 | 0.0 | 0.0 | 0.00 | 0.00 | 0.00 | 23 | 1006.3 |
| 20260905201548 | 78 | 360 | 0.0 | 0.0 | 0.00 | 0.00 | 0.00 | 23 | 1006.6 |
| 20260905200109 | 78 | 163 | 0.0 | 0.0 | 0.00 | 0.00 | 0.00 | 24 | 1006.7 |
| 20260905194539 | 78 | 155 | 0.0 | 0.0 | 0.00 | 0.00 | 0.00 | 26 | 1006.9 |
| 20260905193039 | 77 | 153 | 0.0 | 0.0 | 0.00 | 0.00 | 0.00 | 24 | 1007.0 |
| 20260905191533 | 77 | 161 | 0.0 | 0.0 | 0.00 | 0.00 | 0.00 | 25 | 1007.3 |
| 20260905190026 | 77 | 360 | 0.0 | 0.0 | 0.00 | 0.00 | 0.00 | 27 | 1007.4 |
| 20260905184532 | 76 | 175 | 0.0 | 0.0 | 0.00 | 0.00 | 0.00 | 28 | 1007.7 |
| 20260905183019 | 76 | 185 | 0.0 | 0.0 | 0.00 | 0.00 | 0.00 | 26 | 1007.9 |
| 20260905181512 | 75 | 165 | 0.0 | 0.0 | 0.00 | 0.00 | 0.00 | 24 | 1008.1 |
| 20260905180010 | 76 | 360 | 0.0 | 0.0 | 0.00 | 0.00 | 0.00 | 28 | 1008.2 |
| 20260905174504 | 75 | 186 | 0.0 | 0.0 | 0.00 | 0.00 | 0.00 | 25 | 1008.3 |
| 20260905173102 | 74 | 150 | 0.0 | 0.0 | 0.00 | 0.00 | 0.00 | 28 | 1008.4 |
| 20260905171555 | 74 | 173 | 0.0 | 0.0 | 0.00 | 0.00 | 0.00 | 28 | 1008.5 |
| 20260905170050 | 73 | 183 | 0.0 | 0.0 | 0.00 | 0.00 | 0.00 | 29 | 1008.6 |
| 20260905164547 | 73 | 168 | 0.0 | 0.0 | 0.00 | 0.00 | 0.00 | 29 | 1008.6 |
| 20260905163041 | 72 | 173 | 0.0 | 0.0 | 0.00 | 0.00 | 0.00 | 32 | 1008.7 |
| 20260905161537 | 71 | 360 | 0.0 | 0.0 | 0.00 | 0.00 | 0.00 | 35 | 1008.7 |
| 20260905160032 | 69 | 184 | 0.0 | 0.0 | 0.00 | 0.00 | 0.00 | 43 | 1008.8 |
| 20260905154529 | 66 | 182 | 0.0 | 0.0 | 0.00 | 0.00 | 0.00 | 43 | 1009.1 |
| 20260905153029 | 62 | 182 | 0.0 | 0.0 | 0.00 | 0.00 | 0.00 | 32 | 1009.2 |
| 20260905151522 | 59 | 182 | 0.0 | 0.0 | 0.00 | 0.00 | 0.00 | 32 | 1009.5 |
| 20260905150024 | 56 | 182 | 0.0 | 0.0 | 0.00 | 0.00 | 0.00 | 23 | 1009.7 |
| 20260905144518 | 54 | 182 | 0.0 | 0.0 | 0.00 | 0.00 | 0.00 | 20 | 1009.8 |
| 20260905143018 | 53 | 182 | 0.0 | 0.0 | 0.00 | 0.00 | 0.00 | 17 | 1009.7 |
| 20260905141512 | 52 | 182 | 0.0 | 0.0 | 0.00 | 0.00 | 0.00 | 14 | 1009.4 |
| 20260905140004 | 50 | 182 | 0.0 | 0.0 | 0.00 | 0.00 | 0.00 | 6 | 1009.4 |
| 20260905134559 | 48 | 182 | 0.0 | 0.0 | 0.00 | 0.00 | 0.00 | 9 | 1009.2 |
| 20260905133055 | 48 | 182 | 0.0 | 0.0 | 0.00 | 0.00 | 0.00 | 7 | 1009.0 |
| 20260905131601 | 48 | 182 | 0.0 | 0.0 | 0.00 | 0.00 | 0.00 | 8 | 1008.7 |
| 20260905130045 | 48 | 182 | 0.0 | 0.0 | 0.00 | 0.00 | 0.00 | 13 | 1008.4 |
| 20260905124542 | 49 | 182 | 0.0 | 0.0 | 0.00 | 0.00 | 0.00 | 10 | 1008.2 |
| 20260905123100 | 49 | 182 | 0.0 | 0.0 | 0.00 | 0.00 | 0.00 | 11 | 1008.0 |